Location: Kosice
(0.0000°N, 21.2500°E)
Time: 06:03:10
(UTC+01:00)

GPS 2-04 Rocket1 - Pass Details

Date: 24 January 2021
Orbit: 416 x 543 km, 35.6° (Epoch: 04 March)

Event Time Altitude Azimuth Distance (km) Brightness Sun altitude
Rises 18:31:06 0° 217° (SW) 2,348 7.1 -10.4°
Reaches altitude 10° 18:33:23 10° 205° (SSW) 1,481 5.7 -10.9°
Maximum altitude 18:36:22 29° 142° (SE) 778 3.4 -11.6°
Enters shadow 18:38:12 18° 93° (E) 1,096 3.8 -12.0°
